Location: ?????
(38.2579°N, 22.9711°E)
Time: 13:19:56
(UTC+00:00)

IRAS Rocket - Pass Details

Date: 13 December 2025
Orbit: 846 x 875 km, 100.1° (Epoch: 17 January)

Event Time Altitude Azimuth Distance (km) Brightness Sun altitude
Rises 17:08:43 0° 162° (SSE) 3,403 7.3 -22.9°
Reaches altitude 10° 17:11:04 10° 162° (SSE) 2,467 6.5 -23.3°
Maximum altitude 17:16:33 86° 73° (ENE) 854 4.1 -24.4°
Drops below altitude 10° 17:22:02 10° 346° (NNW) 2,475 6.7 -25.4°
Sets 17:24:24 0° 346° (NNW) 3,414 7.4 -25.9°
